{"data":{"norad_id":51805,"intl_designator":"2022-017AP","name":"STARLINK-3605","alt_names":[],"object_type":"PAYLOAD","status":"ACTIVE","operator":null,"country":"US","launch_date":"2022-02-25","launch_site_code":"AFWTR","launch_vehicle":null,"mission":null,"orbit_class":"UNKNOWN","rcs_meters":null,"size_class":null,"mass_kg":null,"dimensions":null,"purposes":["comms"],"wikipedia_slug":null,"has_3d_model":false,"image_url":null,"decayed_at":null,"tle_current":{"epoch":"2026-05-24T22:24:59.086080Z","epoch_age_seconds":81577,"freshness":"FRESH","line1":"1 51805U 22017AP  26144.93401720 -.00000508  00000+0 -13824-4 0  9990","line2":"2 51805  53.2124 346.9235 0001195  92.2506 267.8622 15.08844617235759","mean_motion":15.08844617,"eccentricity":0.0001195,"inclination_deg":53.2124,"raan_deg":346.9235,"arg_perigee_deg":92.2506,"mean_anomaly_deg":267.8622,"bstar":-1.3824e-5,"rev_number":23575,"period_min":95.43726264293,"perigee_km":538.90259165809,"apogee_km":540.55596169821,"semimajor_km":6917.8662766781,"source":"CELESTRAK","updated_at":"2026-05-25T13:38:16.957046Z"}}}